Location: Festilli
(46.4000°N, 11.6667°E)
Time: 15:26:10
(UTC+00:00)

Meteor 2-4 Rocket - Pass Details

Date: 03 March 2021
Orbit: 799 x 908 km, 81.2° (Epoch: 14 April)

Event Time Altitude Azimuth Distance (km) Brightness Sun altitude
Rises 18:46:01 0° 346° (NNW) 3,489 7.2 -18.6°
Reaches altitude 10° 18:48:28 10° 344° (NNW) 2,560 6.5 -19.0°
Maximum altitude 18:54:15 66° 264° (W) 983 4.2 -20.0°
Drops below altitude 10° 19:00:05 10° 183° (S) 2,583 6.1 -21.0°
Sets 19:02:34 0° 181° (S) 3,522 6.8 -21.4°
